Location: Elliot Lake
(46.3862°N, 82.6509°W)
Time: 11:11:15
(UTC-04:00)

ISS - Pass Details

Date: 27 February 2024
Orbit: 410 x 425 km, 51.6° (Epoch: 25 June)

Event Time Altitude Azimuth Distance (km) Brightness Sun altitude
Exits shadow 06:10:35 14° 304° (NW) 1,338 -1.7 -11.7°
Maximum altitude 06:13:16 36° 9° (N) 723 -2.5 -11.3°
Drops below altitude 10° 06:16:35 10° 78° (ENE) 1,577 0.6 -10.7°
Sets 06:18:50 0° 87° (E) 2,447 2.4 -10.3°
